[[{"header":{"parameterUnit":"m.s-1","parameterCategory":1,"la1":30.2991,"la2":30.254,"lo1":-89.0895,"lo2":-89.0444,"dy":0.0017,"dx":0.0017,"nx":28,"ny":28,"refTime":"2024-07-18T09:00:00:Z","depth":0,"parameterNumber":2,"parameterNumberName":"U-component_of_WINDS"},"data":[0,0,0,0,0,0,0,0,0,0,0,0,0,0,0,0,0,0,0,0,0,0,0,0,0,0,0,0,0,0,0,0,0,0,0,0,0,0,0,0,0,0,0,0,0,0,0,0,0,0,0,0,0,0,0,0,0,0,1.6072,1.6073,0,1.6166,1.6167,1.6168,1.6199,1.6198,1.6198,1.6197,1.6297,1.63,1.6303,0,0,0,0,0,0,0,0,0,0,0,0,0,1.5922,1.5924,1.6072,1.6073,1.6074,1.6166,1.6167,1.6169,1.6199,1.6198,1.6198,1.6197,1.6296,1.63,1.6303,0,0,0,0,0,0,0,0,0,0,0,0,0,1.5999,1.5925,1.6072,1.61,1.6104,1.6166,1.6167,1.6169,1.6199,1.6198,1.6198,1.6197,1.6295,1.6299,1.6304,1.6345,0,0,1.6318,1.632,0,0,0,0,0,0,0,0,1.5994,1.6004,1.6095,1.6098,1.6103,1.617,1.6151,1.6228,1.6199,1.6163,1.6197,1.6197,1.6255,1.6263,1.6282,1.635,1.6354,1.6318,1.6321,1.6323,1.6324,0,0,0,0,0,0,0,1.5989,1.6,1.6109,1.6096,1.6101,1.611,1.612,1.6166,1.6212,1.6166,1.6168,1.6179,1.6257,1.6278,1.6285,1.6355,1.6318,1.6322,1.6325,1.6327,1.6462,1.6463,0,0,0,0,0,0,1.5978,1.5996,1.6106,1.6112,1.6046,1.6113,1.6124,1.6149,1.6211,1.622,1.6179,1.618,1.627,1.628,1.6289,1.6341,1.6323,1.6327,1.633,1.6461,1.6462,1.6463,0,0,0,0,0,0,1.5975,1.5988,1.6103,1.6055,1.607,1.6116,1.6144,1.6151,1.6172,1.6221,1.623,1.6192,1.627,1.6282,1.6331,1.6345,1.6329,1.6333,1.646,1.6462,1.6463,1.6447,0,0,0,0,0,0,1.597,1.5986,1.6002,1.6055,1.6072,1.6142,1.6145,1.6154,1.6179,1.6181,1.6235,1.6244,1.6271,1.6324,1.6335,1.6351,1.6337,1.6459,1.6461,1.6462,1.6446,1.6447,1.6448,0,0,0,0,0,1.5965,1.5994,1.6002,1.6015,1.6092,1.6143,1.6153,1.6182,1.618,1.6196,1.6229,1.6242,1.6342,1.6328,1.6342,1.6359,1.6458,1.646,1.6462,1.6446,1.6447,1.6448,0,0,0,0,0,0,1.5942,1.6001,1.6011,1.6058,1.6095,1.6148,1.6169,1.6183,1.6222,1.6222,1.6258,1.627,1.6316,1.6343,1.6327,1.6403,1.6401,1.6405,1.6384,1.6385,1.6386,1.6379,1.6341,0,0,0,0,0,1.5942,1.5977,1.6028,1.6064,1.6082,1.6122,1.6145,1.6165,1.6205,1.6221,1.6257,1.6296,1.6337,1.6363,1.6402,1.645,1.6463,1.6469,1.647,1.6471,1.6474,1.6502,1.6505,1.6469,1.6469,1.6469,0,0,1.5944,1.598,1.6,1.6061,1.6091,1.6128,1.6135,1.6174,1.6201,1.6228,1.6275,1.6303,1.6349,1.6398,1.6421,1.6421,1.6487,1.6473,1.6473,1.6477,1.6504,1.6508,1.6511,1.6471,1.6471,1.647,0,0,1.5964,1.5995,1.6029,1.606,1.6107,1.6133,1.6141,1.6192,1.6211,1.626,1.628,1.6314,1.6383,1.6415,1.6441,1.6475,1.6489,1.6487,1.6492,1.6519,1.6522,1.6524,1.6537,1.6541,1.649,1.649,1.649,0,1.596,1.6015,1.6045,1.6083,1.6109,1.6133,1.6169,1.6198,1.6255,1.6273,1.6273,1.6359,1.6392,1.6449,1.6457,1.6477,1.6488,1.6481,1.6519,1.6522,1.6525,1.6537,1.6541,1.649,1.649,1.649,1.649,0,1.6008,1.6046,1.6068,1.6122,1.6151,1.6187,1.6223,1.6249,1.6267,1.6294,1.6343,1.6384,1.6432,1.6447,1.6465,1.6507,1.6505,1.6511,1.651,1.6527,1.6539,1.6544,1.6489,1.6489,1.6489,1.6489,0,0,1.6017,1.6087,1.6095,1.612,1.6173,1.6204,1.6241,1.6288,1.631,1.6349,1.6382,1.644,1.6445,1.6474,1.6496,1.6519,1.6544,1.6523,1.6524,1.6525,1.6593,1.6588,1.6593,1.6554,1.6555,1.6556,1.6589,0,1.6044,1.6112,1.614,1.6195,1.6231,1.6255,1.6288,1.6325,1.6351,1.6387,1.6417,1.6457,1.6461,1.6479,1.6503,1.6536,1.6558,1.6534,1.6586,1.6587,1.6573,1.66,1.6595,1.6624,1.6594,1.6595,1.6596,0,1.6086,1.6124,1.6182,1.6231,1.6248,1.6277,1.6322,1.6355,1.6398,1.6416,1.6448,1.6469,1.651,1.6506,1.6565,1.6547,1.6571,1.659,1.6592,1.6598,1.6592,1.6606,1.6635,1.6639,1.6603,1.6603,1.6602,0,1.6086,1.6153,1.6196,1.6217,1.6276,1.6296,1.6321,1.6364,1.639,1.643,1.6448,1.6493,1.6517,1.6552,1.6585,1.6578,1.664,1.6639,1.6657,1.6656,1.6669,1.6667,1.6701,1.6683,1.6683,1.6683,1.6683,0,1.6114,1.6149,1.6197,1.6224,1.6264,1.6297,1.6336,1.6363,1.6401,1.6434,1.6458,1.6489,1.653,1.6567,1.6592,1.6637,1.6648,1.6664,1.6671,1.6662,1.666,1.6678,1.6677,1.6684,1.6684,1.6684,1.6684,0,1.6122,1.6155,1.6204,1.6256,1.627,1.6297,1.6342,1.6369,1.6397,1.6439,1.6451,1.6494,1.6539,1.6574,1.6633,1.665,1.6697,1.6705,1.6682,1.6686,1.6702,1.67,1.6748,1.6756,1.6732,1.6733,1.6733,0,1.6137,1.6164,1.6219,1.6242,1.6268,1.6305,1.6332,1.6367,1.6394,1.6445,1.6466,1.6512,1.655,1.662,1.6658,1.6703,1.6712,1.6725,1.6718,1.6709,1.6712,1.671,1.6713,1.6726,1.6726,1.6726,1.6726,0,1.6161,1.6177,1.6214,1.6258,1.6289,1.6325,1.6362,1.638,1.6422,1.6451,1.6496,1.6526,1.6585,1.663,1.6679,1.6707,1.6724,1.6728,1.6735,1.6726,1.6712,1.672,1.6684,1.6727,1.6727,1.6727,1.6727,1.6727,1.6174,1.6199,1.6241,1.6283,1.6314,1.6348,1.6376,1.6407,1.6445,1.6495,1.6513,1.656,1.6603,1.667,1.6698,1.6735,1.6737,1.6747,1.6749,1.6751,1.675,1.6706,1.6745,1.6745,1.6745,1.6745,1.6745,0,1.6199,1.6228,1.6265,1.6316,1.6348,1.636,1.6402,1.6429,1.6469,1.6507,1.6544,1.6597,1.6641,1.6682,1.6729,1.6751,1.676,1.6762,1.6761,1.6767,1.6746,1.6735,1.6754,1.6754,1.6754,1.6754,1.6754,1.6754,1.6216,1.626,1.6281,1.634,1.6369,1.6414,1.6436,1.6468,1.6499,1.6556,1.6592,1.6619,1.6659,1.6708,1.675,1.6761,1.6777,1.6777,1.679,1.677,1.6768,1.6767,1.6757,1.678,1.678,1.6809,1.6809,1.6809]},{"header":{"parameterUnit":"m.s-1","parameterCategory":1,"la1":30.2991,"la2":30.254,"lo1":-89.0895,"lo2":-89.0444,"dy":0.0017,"dx":0.0017,"nx":28,"ny":28,"refTime":"2024-07-18T09:00:00:Z","depth":0,"parameterNumber":3,"parameterNumberName":"V-component_of_WINDS"},"data":[0,0,0,0,0,0,0,0,0,0,0,0,0,0,0,0,0,0,0,0,0,0,0,0,0,0,0,0,0,0,0,0,0,0,0,0,0,0,0,0,0,0,0,0,0,0,0,0,0,0,0,0,0,0,0,0,0,0,1.1151,1.1151,0,1.1151,1.1151,1.1151,1.1153,1.1153,1.1153,1.1153,1.1151,1.1151,1.1151,0,0,0,0,0,0,0,0,0,0,0,0,0,1.1147,1.1147,1.1151,1.1151,1.1151,1.1151,1.1151,1.1151,1.1153,1.1153,1.1153,1.1153,1.1151,1.1151,1.1151,0,0,0,0,0,0,0,0,0,0,0,0,0,1.1148,1.1147,1.1151,1.1152,1.1152,1.1151,1.1151,1.1151,1.1153,1.1153,1.1153,1.1153,1.1151,1.1151,1.1151,1.1148,0,0,1.115,1.115,0,0,0,0,0,0,0,0,1.1148,1.1148,1.1151,1.1152,1.1152,1.1152,1.1149,1.115,1.1153,1.1152,1.1153,1.1153,1.1151,1.1151,1.1151,1.1148,1.1148,1.115,1.115,1.115,1.115,0,0,0,0,0,0,0,1.1148,1.1148,1.1151,1.1151,1.1152,1.1151,1.1151,1.1149,1.1151,1.1152,1.1152,1.1152,1.1151,1.1151,1.1151,1.1148,1.115,1.115,1.115,1.115,1.1141,1.1141,0,0,0,0,0,0,1.1148,1.1148,1.1151,1.1151,1.115,1.1151,1.1151,1.1152,1.1151,1.1151,1.1152,1.1153,1.1151,1.1151,1.1151,1.1146,1.115,1.115,1.115,1.1141,1.1141,1.1141,0,0,0,0,0,0,1.1148,1.1149,1.1151,1.115,1.115,1.1151,1.1152,1.1152,1.1152,1.1151,1.1151,1.1152,1.1151,1.1151,1.1148,1.1146,1.115,1.115,1.1141,1.1141,1.1141,1.1139,0,0,0,0,0,0,1.1148,1.1149,1.1149,1.115,1.115,1.115,1.1152,1.1152,1.1152,1.1152,1.1151,1.1151,1.1151,1.1149,1.1148,1.1146,1.115,1.1141,1.1141,1.1141,1.1139,1.1138,1.1138,0,0,0,0,0,1.1148,1.1149,1.1149,1.1149,1.1151,1.115,1.115,1.1151,1.1152,1.1151,1.115,1.1151,1.1146,1.1148,1.1148,1.1146,1.1142,1.1141,1.1141,1.1139,1.1138,1.1138,0,0,0,0,0,0,1.1148,1.1149,1.1149,1.115,1.115,1.115,1.115,1.115,1.1149,1.115,1.115,1.1149,1.1146,1.1146,1.1148,1.1142,1.1144,1.1143,1.1143,1.1142,1.1141,1.1141,1.1149,0,0,0,0,0,1.1148,1.1148,1.1149,1.1149,1.1149,1.1149,1.1149,1.115,1.1149,1.1149,1.1148,1.1147,1.1144,1.1143,1.1142,1.1139,1.1137,1.1136,1.1136,1.1136,1.1135,1.113,1.113,1.114,1.114,1.114,0,0,1.1148,1.1148,1.1149,1.1149,1.1149,1.1148,1.1149,1.1149,1.1147,1.1148,1.1146,1.1145,1.1143,1.114,1.1138,1.1139,1.1132,1.1135,1.1135,1.1134,1.113,1.1129,1.1128,1.1139,1.1139,1.1139,0,0,1.1147,1.1149,1.1148,1.1147,1.1147,1.1147,1.1147,1.1146,1.1146,1.1143,1.1143,1.1141,1.1138,1.1136,1.1134,1.113,1.1129,1.1129,1.1126,1.1122,1.1121,1.112,1.1117,1.1116,1.1128,1.1128,1.1128,0,1.1147,1.1147,1.1148,1.1146,1.1145,1.1146,1.1144,1.1143,1.1142,1.1141,1.1142,1.1137,1.1136,1.113,1.1129,1.1128,1.1126,1.1129,1.1121,1.112,1.112,1.1116,1.1115,1.1128,1.1128,1.1128,1.1128,0,1.1146,1.1145,1.1144,1.1143,1.1142,1.1141,1.114,1.1138,1.1138,1.1137,1.1132,1.1131,1.1128,1.1126,1.1126,1.112,1.1121,1.1122,1.1123,1.1119,1.1115,1.1114,1.1128,1.1128,1.1128,1.1128,0,0,1.1146,1.1144,1.1143,1.1142,1.114,1.1139,1.1136,1.1133,1.1131,1.1129,1.1125,1.1122,1.1122,1.112,1.1119,1.1115,1.1109,1.1116,1.1116,1.1114,1.1099,1.1098,1.1097,1.1109,1.1108,1.1108,1.1099,0,1.1144,1.1141,1.114,1.1136,1.1134,1.1133,1.1131,1.1128,1.1126,1.1123,1.1121,1.1117,1.1119,1.1117,1.1113,1.1111,1.1106,1.1111,1.1103,1.1103,1.1103,1.1095,1.1094,1.1086,1.1098,1.1098,1.1097,0,1.1143,1.114,1.1136,1.1132,1.1131,1.1129,1.1125,1.1122,1.1118,1.1117,1.1114,1.1113,1.1107,1.1109,1.1101,1.1105,1.1101,1.1099,1.1098,1.1097,1.11,1.1092,1.1083,1.1081,1.1096,1.1096,1.1096,0,1.1141,1.1137,1.1134,1.1132,1.1128,1.1126,1.1124,1.112,1.1117,1.1113,1.1111,1.1106,1.1103,1.1098,1.1095,1.1097,1.1086,1.1088,1.1083,1.1083,1.108,1.108,1.1069,1.108,1.108,1.108,1.108,0,1.1139,1.1136,1.1133,1.1131,1.1126,1.1124,1.112,1.1117,1.1113,1.1109,1.1108,1.1103,1.11,1.1094,1.1092,1.1083,1.1083,1.108,1.1079,1.108,1.108,1.1077,1.1077,1.108,1.108,1.108,1.108,0,1.1137,1.1135,1.1131,1.1127,1.1125,1.1122,1.1117,1.1114,1.1111,1.1106,1.1104,1.1099,1.1093,1.1089,1.1081,1.1078,1.1069,1.1069,1.107,1.107,1.1064,1.1064,1.105,1.1047,1.1061,1.106,1.106,0,1.1136,1.1133,1.1128,1.1125,1.1123,1.1119,1.1116,1.1113,1.1109,1.1103,1.1099,1.1092,1.1087,1.1075,1.107,1.1063,1.1062,1.1058,1.1061,1.1061,1.106,1.106,1.1058,1.1057,1.1057,1.1057,1.1057,0,1.1133,1.1131,1.1127,1.1122,1.1118,1.1114,1.1109,1.1106,1.1102,1.1098,1.1091,1.1086,1.1077,1.1069,1.1061,1.1057,1.1055,1.1055,1.1053,1.1053,1.1054,1.1052,1.1067,1.1056,1.1056,1.1056,1.1056,1.1056,1.113,1.1127,1.1122,1.1116,1.1113,1.1108,1.1104,1.11,1.1094,1.1086,1.1085,1.1076,1.1069,1.1058,1.1054,1.1046,1.1047,1.1044,1.1044,1.1043,1.1042,1.1055,1.1045,1.1045,1.1045,1.1045,1.1045,0,1.1125,1.1121,1.1117,1.111,1.1105,1.1104,1.1098,1.1094,1.1087,1.1081,1.1075,1.1065,1.1057,1.105,1.1041,1.1036,1.1035,1.1034,1.1033,1.1032,1.1042,1.1044,1.1035,1.1035,1.1035,1.1035,1.1035,1.1035,1.1122,1.1116,1.1113,1.1104,1.11,1.1092,1.1088,1.1083,1.1078,1.1067,1.106,1.1056,1.1049,1.1039,1.103,1.1028,1.1024,1.1023,1.1021,1.1031,1.1032,1.1033,1.1034,1.1023,1.1023,1.1011,1.1011,1.1011]}]]